{"data":{"norad_id":54843,"intl_designator":"2022-177Z","name":"STARLINK-5304","alt_names":[],"object_type":"PAYLOAD","status":"ACTIVE","operator":null,"country":"US","launch_date":"2022-12-28","launch_site_code":"AFETR","launch_vehicle":null,"mission":null,"orbit_class":"UNKNOWN","rcs_meters":null,"size_class":null,"mass_kg":null,"dimensions":null,"purposes":["comms"],"wikipedia_slug":null,"has_3d_model":false,"image_url":null,"decayed_at":null,"tle_current":{"epoch":"2026-09-20T22:58:54.752160Z","epoch_age_seconds":53824,"freshness":"FRESH","line1":"1 54843U 22177Z   26263.95757815 -.00001754  00000+0 -54261-4 0  9999","line2":"2 54843  43.0031 110.1712 0001078 282.8709  77.2023 15.27565447206827","mean_motion":15.27565447,"eccentricity":0.0001078,"inclination_deg":43.0031,"raan_deg":110.1712,"arg_perigee_deg":282.8709,"mean_anomaly_deg":77.2023,"bstar":-5.4261e-5,"rev_number":20682,"period_min":94.267646785807,"perigee_km":482.35303274425,"apogee_km":483.83231386181,"semimajor_km":6861.229673303,"source":"CELESTRAK","updated_at":"2026-09-21T09:00:33.136263Z"}}}